Location: Mount Cross
(36.6390°N, 79.4878°W)
Time: 13:59:36
(UTC+00:00)

Tiros 1 - Pass Details

Date: 07 April 2023
Orbit: 627 x 661 km, 48.4° (Epoch: 02 June)

Event Time Altitude Azimuth Distance (km) Brightness Sun altitude
Exits shadow 07:11:16 14° 35° (NE) 1,834 10.1 -39.4°
Drops below altitude 10° 07:12:03 10° 41° (NE) 2,073 10.4 -39.3°
Sets 07:14:43 0° 53° (NE) 2,989 11.4 -39.0°
